Location: Le Vaud
(46.4779°N, 6.2346°E)
Time: 06:16:20
(UTC+00:00)

STARLINK-1110 - Pass Details

Date: 18 February 2020
Orbit: 548 x 550 km, 53.0° (Epoch: 09 April)

Event Time Altitude Azimuth Distance (km) Brightness Sun altitude
Exits shadow 05:40:13 13° 266° (W) 1,617 5.4 -10.0°
Maximum altitude 05:43:42 49° 340° (NNW) 714 4.0 -9.4°
Drops below altitude 10° 05:47:46 10° 56° (NE) 1,834 7.1 -8.8°
Sets 05:50:04 0° 62° (ENE) 2,730 8.1 -8.4°
